FW1217 Weather Reports


time (UTC)temp
F
wind
direction
speed
knots
gust
knots
rain 1hr
in
rain 24hr
in
rain mn
in
humidity
%
barometer
mb
20260503054521 37 213 0.0 2.6 0.00 0.00 0.00 79 1019.9
20260503053024 37 213 0.9 1.7 0.00 0.00 0.00 79 1020.0
20260503051518 37 213 0.0 1.7 0.00 0.00 0.00 79 1020.0
20260503050019 37 213 0.0 1.7 0.00 0.00 0.00 78 1020.0
20260503044543 37 213 0.0 0.0 0.00 0.00 0.00 78 1020.0
20260503043017 37 213 0.0 0.0 0.00 0.00 0.00 78 1020.0
20260503041515 37 213 0.0 0.0 0.00 0.00 0.00 79 1019.9
20260503040018 38 213 0.0 0.0 0.00 0.00 0.00 79 1019.9
20260503034515 38 213 0.0 0.0 0.00 0.00 0.00 78 1020.0
20260503033018 38 213 0.0 0.0 0.00 0.00 0.00 77 1020.0
20260503031515 38 213 0.0 0.0 0.00 0.00 0.00 76 1020.2
20260503030013 39 213 0.0 0.0 0.00 0.00 0.00 75 1020.3
20260503024514 39 213 0.0 0.0 0.00 0.00 0.00 73 1020.4
20260503023014 40 213 0.0 0.0 0.00 0.00 0.00 72 1020.4
20260503021518 41 213 0.0 0.0 0.00 0.00 0.00 71 1020.4
20260503020032 41 213 0.0 0.0 0.00 0.00 0.00 69 1020.2
20260503014514 42 213 0.0 0.0 0.00 0.00 0.00 68 1020.0
20260503013016 43 213 0.0 0.9 0.00 0.00 0.00 64 1019.9
20260503011514 44 213 0.0 1.7 0.00 0.00 0.00 61 1019.8
20260503010012 45 212 0.0 1.7 0.00 0.00 0.00 60 1019.7
20260503004513 45 212 0.9 3.5 0.00 0.00 0.00 58 1019.6
20260503003026 45 238 1.7 3.5 0.00 0.00 0.00 58 1019.6
20260503001516 46 219 1.7 3.5 0.00 0.00 0.00 57 1019.5
20260503000026 46 215 0.9 4.3 0.00 0.00 0.00 55 1019.4
20260502234512 46 211 0.9 6.1 0.00 0.00 0.00 56 1019.2
20260502233016 46 215 0.9 7.8 0.00 0.00 0.00 55 1019.1
20260502231514 47 213 1.7 7.0 0.00 0.00 0.00 54 1019.1
20260502230012 47 237 1.7 7.0 0.00 0.00 0.00 53 1019.1
20260502224512 48 254 1.7 4.3 0.00 0.00 0.00 54 1019.1
20260502223031 47 223 2.6 7.0 0.00 0.00 0.00 52 1019.0
20260502221512 48 265 1.7 7.8 0.00 0.00 0.00 52 1019.0
20260502220013 48 230 3.5 8.7 0.00 0.00 0.00 51 1018.9
20260502214509 48 214 3.5 7.8 0.00 0.00 0.00 52 1018.8
20260502213012 48 188 2.6 6.1 0.00 0.00 0.00 53 1018.7
20260502211510 48 227 2.6 8.7 0.00 0.00 0.00 52 1018.7
20260502210011 49 261 1.7 9.6 0.00 0.00 0.00 50 1018.5
20260502204510 50 218 1.7 7.8 0.00 0.00 0.00 52 1018.5
20260502203008 49 236 2.6 7.0 0.00 0.00 0.00 52 1018.6
20260502201512 49 255 3.5 7.8 0.00 0.00 0.00 51 1018.7
20260502200013 49 167 4.3 8.7 0.00 0.00 0.00 51 1018.8
20260502194512 50 236 3.5 8.7 0.00 0.00 0.00 50 1018.8
20260502193012 52 254 4.3 10.4 0.00 0.00 0.00 52 1018.9
20260502191509 50 256 2.6 7.8 0.00 0.00 0.00 53 1019.1
20260502190018 51 243 5.2 8.7 0.00 0.00 0.00 48 1019.2
20260502184511 51 251 3.5 9.6 0.00 0.00 0.00 51 1019.2
20260502183006 49 253 4.3 8.7 0.00 0.00 0.00 52 1019.3
20260502181509 48 254 1.7 9.6 0.00 0.00 0.00 51 1019.3
20260502163014 46 269 4.3 7.8 0.00 0.01 0.00 55 1020.0
20260502161518 48 233 2.6 7.0 0.00 0.01 0.00 55 1020.1
20260502151526 47 306 2.6 9.6 0.00 0.07 0.00 60 1020.0
20260502123032 39 252 2.6 6.1 0.00 0.08 0.00 76 1019.2
20260502121525 39 266 0.9 5.2 0.00 0.08 0.00 78 1019.0
20260502114521 36 239 1.7 4.3 0.00 0.08 0.00 81 1018.9
20260502113026 35 272 0.0 3.5 0.00 0.08 0.00 83 1018.8
20260502111517 35 248 0.9 2.6 0.00 0.08 0.00 83 1018.7
20260502110022 34 257 0.0 1.7 0.00 0.08 0.00 84 1018.7
20260502104519 34 257 0.0 0.9 0.00 0.08 0.00 84 1018.8
20260502103020 34 257 0.0 0.9 0.00 0.08 0.00 84 1018.8
20260502101518 34 257 0.0 1.7 0.00 0.08 0.00 85 1018.6
20260502091522 36 257 0.0 0.0 0.00 0.08 0.00 84 1018.6
20260502071519 38 259 0.0 0.0 0.00 0.08 0.00 88 1018.4
20260502070021 37 259 0.0 0.0 0.00 0.08 0.00 88 1018.7
20260502064516 37 259 0.0 0.0 0.00 0.08 0.00 89 1018.9